Flag for U.S.A. Weather past 2 weeks in Plano, Texas, U.S.A.

40 °F

Heavy rain. Fog.

Feels Like: 34 °F
Forecast: 41 / 43 °F
Wind: 9 mph from Northwest

Location: McKinney Municipal Airport

Current Time: Nov 27, 2015 at 7:43:17 PM

Latest Report: Nov 27, 2015 at 7:00 PM

Visibility: 4 mi

Pressure: 30.27 "Hg

Humidity: 93%

Dew point: 38 °F

Location of PlanoLocation

Historic Weather in Plano — Graph


Plano temperature yesterday

Maximum temperature yesterday: 70 °F (at 11:53 AM)
Minimum temperature yesterday: 65 °F (at 2:53 AM)
Average temperature yesterday: 67 °F

Past Weeks' High & Low Weather Summary

High72 °F (Nov 17, 3:53 AM)97% (Nov 13, 6:53 AM)30.41 "Hg (Nov 13, 6:53 AM)
Low29 °F (Nov 22, 4:53 AM)24% (Nov 13, 12:53 PM)29.44 "Hg (Nov 17, 3:53 AM)
Average55 °F72%30.11 "Hg
* Reported Nov 12 5:53 PM — Nov 27 5:53 PM, Plano, Weather by CustomWeather, © 2015

Note: Actual official high and low records may vary slightly from our data, if they occured in-between our weather recording intervals... More about our weather records


Plano weather history for previous 24 hours

Time TempWeatherWind HumidityBarometerVisibility
5:53 PM
Fri, Nov 27
40 °FRain. Fog.13 mph93%30.26 "Hg2 mi
4:53 PM40 °FLight rain. Mostly cloudy.12 mph97%30.26 "Hg7 mi
3:55 PM40 °FLight rain. Fog.14 mph93%30.22 "Hg2 mi
2:53 PM40 °FHeavy rain. Fog.17 mph97%30.23 "Hg2 mi
2:02 PM42 °FLight rain. Mostly cloudy.14 mph92%30.21 "Hg10 mi
12:53 PM43 °FRain. Fog.16 mph93%30.23 "Hg6 mi
12:01 PM42 °FLight rain. Fog.17 mph92%30.22 "Hg6 mi
10:53 AM43 °FLight rain. Mostly cloudy.17 mph93%30.26 "Hg10 mi
9:53 AM44 °FLight rain. Overcast.17 mph93%30.24 "Hg8 mi
8:53 AM45 °FMostly cloudy.18 mph93%30.23 "Hg10 mi
7:53 AM47 °FLight rain. Fog.14 mph93%30.21 "Hg4 mi
6:53 AM48 °FHeavy rain. Fog.13 mph96%30.14 "Hg2 mi
5:53 AM50 °FRain. Fog.14 mph93%30.13 "Hg6 mi
4:59 AM53 °FRain. Fog.20 mph93%30.09 "Hg3 mi
3:53 AM69 °FLight rain. Low clouds.22 mph93%30.04 "Hg9 mi
3:02 AM67 °FHeavy rain. Fog.6 mph97%30.07 "Hg2 mi
2:53 AM67 °FHeavy rain. Fog.5 mph97%30.08 "Hg3 mi
1:53 AM67 °FHeavy rain. Fog.7 mph97%30.07 "Hg1 mi
1:00 AM68 °FHeavy rain. Fog.12 mph96%30.07 "Hg2 mi
11:53 PM
Thu, Nov 26
68 °FHeavy rain. Fog.16 mph96%30.11 "Hg4 mi
10:53 PM68 °FRain. Fog.16 mph96%30.10 "Hg4 mi
9:53 PM68 °FHeavy rain. Fog.10 mph96%30.10 "Hg3 mi
9:04 PM68 °FHeavy rain. Fog.6 mph93%30.11 "Hg2 mi
8:02 PM68 °FThundershowers. Fog.21 mph93%30.11 "Hg3 mi
Weather by CustomWeather, © 2015

See weather overviewHow to use our weather pages